Weather History for Pian Rosa, Italy

Change the Weather History Date:

Friday, November 2, 2012

  Actual Average Record
Temperature  
Mean Temperature 15 °F -  
Max Temperature 17 °F 23 °F 33 °F (1999)
Min Temperature 13 °F 13 °F 0 °F (2006)
Degree Days  
Heating Degree Days 50    
Moisture  
Dew Point 13 °F    
Average Humidity 87    
Maximum Humidity 93    
Minimum Humidity 71    
Precipitation  
Precipitation 0.00 in - - ()
Sea Level Pressure  
Sea Level Pressure 29.70 in    
Wind  
Wind Speed 16 mph ()    
Max Wind Speed 23 mph    
Max Gust Speed -    
Visibility 2.7 miles    
Events Fog , Snow    
Averages and records for this station are not official NWS values.
T = Trace of Precipitation, MM = Missing Value Source: Averaged Metar Reports

Daily Weather History Graph

Daily Weather History Graph

Search for Another Location

Airport:

Trip Planner

Search our weather history database for the weather conditions in past years. The results will help you decide how hot, cold, wet, or windy it might be!

Date:

Astronomy

Nov. 02, 2012 Rise Set
Actual Time 7:11 AM CET 5:13 PM CET
Civil Twilight 6:40 AM CET 5:44 PM CET
Nautical Twilight 6:04 AM CET 6:20 PM CET
Astronomical Twilight 5:29 AM CET 6:54 PM CET
Moon 7:40 PM CET (11/2) 10:26 AM CET (11/2)
Length of Visible Light 11h 04m
Length of Day
10h 02m
Waning Gibbous, 89% of the Moon is Illuminated
Nov 2
Waning Gibbous
Nov 7
Last Quarter
Nov 13
New
Nov 20
First Quarter
Nov 28
Full

Hourly Weather History & Observations

Time (CET) Temp. Windchill Dew Point Humidity Pressure Visibility Wind Dir Wind Speed Gust Speed Precip Events Conditions
12:55 AM 15.8 °F -1.9 °F 14.0 °F 93% 29.53 in 0.1 mi South 21.9 mph - N/A Fog , Snow Light Snow
1:00 AM 16 °F - 14 °F 87%  in 0 mi South 21.9 mph - - Snow Light Snow
1:55 AM 15.8 °F -1.9 °F 14.0 °F 93% 29.53 in 0.1 mi SSW 21.9 mph - N/A Fog , Snow Light Snow
2:55 AM 15.8 °F -0.2 °F 14.0 °F 93% 29.53 in 0.1 mi SSW 17.3 mph - N/A Fog , Snow Light Snow
3:55 AM 15.8 °F -1.5 °F 12.2 °F 86% 29.56 in 0.1 mi SSW 20.7 mph - N/A Fog , Snow Light Snow
4:00 AM 15 °F - 13 °F 88%  in 0 mi SSW 20.7 mph - - Snow Light Snow
4:55 AM 14.0 °F -2.5 °F 12.2 °F 93% 29.56 in 0.5 mi SSW 17.3 mph - N/A Fog , Snow Light Snow
5:55 AM 14.0 °F -3.9 °F 10.4 °F 86% 29.56 in 0.2 mi SSW 20.7 mph - N/A Fog , Snow Light Snow
6:55 AM 14.0 °F -0.8 °F 10.4 °F 86% 29.56 in 0.1 mi SSW 13.8 mph - N/A Fog , Snow Light Snow
7:00 AM 13 °F - 11 °F 85%  in 0 mi SSW 13.8 mph - - Snow Light Snow
7:55 AM 14.0 °F -0.8 °F 10.4 °F 86% 29.59 in 0.1 mi South 13.8 mph - N/A Fog , Snow Light Snow
8:55 AM 14.0 °F 2.0 °F 12.2 °F 93% 29.65 in 0.1 mi South 9.2 mph - N/A Fog , Snow Light Snow
9:55 AM 14.0 °F 2.0 °F 12.2 °F 93% 29.68 in 0.3 mi SW 9.2 mph - N/A Fog Light Freezing Fog
10:55 AM 14.0 °F 2.9 °F 12.2 °F 93% 29.71 in 6.2 mi SSW 8.1 mph - N/A   Partly Cloudy
11:55 AM 14.0 °F 2.0 °F 12.2 °F 93% 29.71 in 6.2 mi WSW 9.2 mph - N/A   Partly Cloudy
12:55 PM 15.8 °F 8.6 °F 10.4 °F 79% 29.71 in 6.2 mi SSW 4.6 mph - N/A   Partly Cloudy
1:00 PM 15 °F - 10 °F 71%  in 12 mi SSW 4.6 mph - -   Partly Cloudy
1:55 PM 15.8 °F -0.2 °F 8.6 °F 73% 29.74 in 6.2 mi SSW 17.3 mph - N/A   Scattered Clouds
2:55 PM 15.8 °F -1.5 °F 10.4 °F 79% 29.74 in 6.2 mi SSW 20.7 mph - N/A   Mostly Cloudy
3:55 PM 15.8 °F -2.3 °F 12.2 °F 86% 29.77 in 1.9 mi SW 23.0 mph - N/A   Scattered Clouds
4:00 PM 16 °F - 12 °F 79%  in 2 mi SW 23.0 mph - -   Mist
4:55 PM 15.8 °F 0.3 °F 14.0 °F 93% 29.77 in 6.2 mi SSW 16.1 mph - N/A   Scattered Clouds
5:55 PM 15.8 °F -2.3 °F 14.0 °F 93% 29.80 in 6.2 mi SSW 23.0 mph - N/A   Scattered Clouds
6:55 PM 15.8 °F -2.3 °F 12.2 °F 86% 29.80 in 0.5 mi SSW 23.0 mph - N/A Fog Light Freezing Fog
7:00 PM 16 °F - 13 °F 81%  in 0 mi SSW 23.0 mph - - Fog Heavy Fog
7:55 PM 15.8 °F -0.6 °F 14.0 °F 93% 29.83 in 0.5 mi SSW 18.4 mph - N/A Fog Light Freezing Fog
8:55 PM 15.8 °F -0.6 °F 14.0 °F 93% 29.83 in 6.2 mi SW 18.4 mph - N/A   Scattered Clouds
9:55 PM 17.6 °F 1.3 °F 14.0 °F 86% 29.89 in 6.2 mi SSW 19.6 mph - N/A   Partly Cloudy
10:00 PM 17 °F - 15 °F 85%  in 7 mi SSW 19.6 mph - -   Scattered Clouds
10:55 PM 17.6 °F 2.7 °F 14.0 °F 86% 29.89 in 0.5 mi SSW 16.1 mph - N/A Fog Light Freezing Fog
11:55 PM 17.6 °F 2.2 °F 15.8 °F 93% 29.92 in 0.5 mi SSW 17.3 mph - N/A Fog Light Freezing Fog